Regional Weather Roundup
Issued by NWS

Home | Current Version | Previous Version | Text Only | Print | Product List | Glossary Off
Versions: 1 2 3 4 5 6 7 8 9 10 11 12 13 14 15 16 17 18 19 20 21 22 23 24 25 26 27 28 29 30 31 32 33 34 35 36 37 38 39 40 41 42 43 44 45 46 47 48 49 50

000
ASUS43 KOAX 261102
RWRNE

WEATHER ROUNDUP FOR NEBRASKA
NATIONAL WEATHER SERVICE OMAHA NE
600 AM CDT WED APR 26 2017

NOTES: SATELLITE DATA IS BEING USED TO AUGMENT CLOUD COVER ABOVE
       12000 FEET.
       "FAIR" INDICATES FEW OR NO CLOUDS BELOW 12,000 FEET WITH NO
       SIGNIFICANT WEATHER AND/OR OBSTRUCTIONS TO VISIBILITY.

  * THESE STATIONS DO NOT REPORT WEATHER SUCH AS RAIN...SNOW OR FOG.

NEZ001>004-019>022-054>056-261200-
NEBRASKA PANHANDLE

CITY           SKY/WX    TMP DP  RH WIND       PRES   REMARKS
SCOTTSBLUFF    PTCLDY    31  25  78 NW9       29.83F WCI  23
ALLIANCE       CLOUDY    28  25  88 N13       29.82R WCI  17
CHADRON        CLOUDY    30  26  85 CALM      29.86S
KIMBALL        CLOUDY    32  29  92 NW13      29.81S WCI  22
SIDNEY         CLOUDY    31  27  85 N13       29.81R WCI  21
$$

NEZ057>060-069>072-079>082-261200-
SOUTHWEST NEBRASKA

CITY           SKY/WX    TMP DP  RH WIND       PRES   REMARKS
NORTH PLATTE   CLOUDY    32  25  75 N17G25    29.79S WCI  21
IMPERIAL       CLOUDY    29  24  82 N13       29.82R WCI  19
LEXINGTON      CLOUDY    33  28  81 N14       29.78R WCI  23
MCCOOK         CLOUDY    33  25  72 N14       29.81R WCI  23
OGALLALA       CLOUDY    33  26  77 NW16      29.81S WCI  22
$$

NEZ005>010-023>029-035>040-094-261200-
NORTH CENTRAL NEBRASKA

CITY           SKY/WX    TMP DP  RH WIND       PRES   REMARKS
VALENTINE      CLOUDY    32  25  75 NW15      29.79R WCI  22
AINSWORTH      CLOUDY    31  28  92 NW15      29.78R WCI  20
BROKEN BOW     CLOUDY    32  25  75 N23G29    29.75S WCI  19
O`NEILL        CLOUDY    32  29  90 NW18      29.75R WCI  20
ORD            CLOUDY    32  27  81 NW21G26   29.74R WCI  20
THEDFORD       CLOUDY    32  27  81 NW21G26   29.79R WCI  20
$$

NEZ041-046>049-061>064-073>077-083>087-261200-
SOUTH CENTRAL NEBRASKA

CITY           SKY/WX    TMP DP  RH WIND       PRES   REMARKS
GRAND ISLAND   CLOUDY    34  30  85 NW20G28   29.74R WCI  23
AURORA         CLOUDY    34  31  88 NW25G31   29.72R WCI  22
HASTINGS       CLOUDY    35  30  82 NW18      29.74R WCI  24
HEBRON         CLOUDY    37  32  81 NW18G26   29.71R WCI  27
HOLDREGE       CLOUDY    33  28  79 NW20G28   29.76S WCI  22
KEARNEY *      CLOUDY    34  27  75 N17G25    29.76R WCI  23
YORK           CLOUDY    36  32  87 NW21G26   29.69S WCI  24
$$

NEZ011>018-030>034-042>045-261200-
NORTHEAST NEBRASKA

CITY           SKY/WX    TMP DP  RH WIND       PRES   REMARKS
NORFOLK        CLOUDY    33  28  81 NW20G31   29.68R WCI  21
ALBION         CLOUDY    34  30  86 NW22G28   29.70S WCI  22
BLAIR          CLOUDY    36  34  93 NW17G30   29.62S WCI  25
FREMONT        CLOUDY    36  33  90 NW21G26   29.67S WCI  24
TEKAMAH        CLOUDY    36  33  89 NW26      29.65R WCI  24
WAYNE          CLOUDY    33  33  98 NW20G28   29.67S WCI  22
$$

NEZ050>053-065>068-078-088>093-261200-
SOUTHEAST NEBRASKA

CITY           SKY/WX    TMP DP  RH WIND       PRES   REMARKS
LINCOLN        CLOUDY    38  31  76 NW21G32   29.66F WCI  28
OMAHA EPPLEY   CLOUDY    37  33  85 NW17G25   29.62S WCI  27
BEATRICE       CLOUDY    38  33  84 NW24G30   29.65R WCI  26
FALLS CITY     CLOUDY    40  35  83 NW14G28   29.60R WCI  32
NEBRASKA CITY  CLOUDY    38  33  83 NW18G32   29.60F WCI  28
PLATTSMOUTH    CLOUDY    37  33  87 NW18G29   29.60F WCI  27
$$

NEZ044-045-051>053-067-261200-
OMAHA AREA

CITY           SKY/WX    TMP DP  RH WIND       PRES   REMARKS
OMAHA EPPLEY   CLOUDY    37  33  85 NW17G25   29.62S WCI  27
BLAIR          CLOUDY    36  34  93 NW17G30   29.62S WCI  25
FREMONT        CLOUDY    36  33  90 NW21G26   29.67S WCI  24
MILLARD        CLOUDY    38  36  90 NW15G22   29.63F WCI  30
OFFUTT AFB     CLOUDY    37  34  88 NW21G28   29.60F WCI  27
PLATTSMOUTH    CLOUDY    37  33  87 NW18G29   29.60F WCI  27
WAHOO          CLOUDY    37  32  83 NW20G26   29.65F WCI  26
$$




USA.gov is the U.S. government's official web portal to all federal, state and local government web resources and services.